Hourly Data Report for October 06, 2013

All times are specified in Local Standard Time (LST). Add 1 hour to adjust for Daylight Saving Time where and when it is observed.

CAPE DORSET A
NUNAVUT

64°13'49.000" N
76°31'30.000" W
48.20 m
2400637
71366
YTE

Download Data

Hourly Data (October 2013)
Hourly Data Report for October 6, 2013
Temp Definition
°C
Dew Point Temp Definition
°C
Rel Hum Definition
%
Wind Dir Definition
10's deg

Wind Spd Definition
km/h
Visibility Definition
km
Stn Press Definition
kPa
Hmdx Definition


Wind Chill Definition


Weather Definition


TIME
00:00 Legend Double Dagger -3.3 -7.3 74 5 9 16.1 101.63   -7 LegendNANA
01:00 Legend Double Dagger -3.6 -7.8 73 LegendMM 4 16.1 101.65   -5 LegendNANA
02:00 Legend Double Dagger -3.7 -7.7 74 2 8 16.1 101.68   -7 LegendNANA
03:00 Legend Double Dagger -3.6 -7.6 74 33 8 16.1 101.71   -7 LegendNANA
04:00 Legend Double Dagger -3.8 -7.7 75 LegendMM 4 16.1 101.69   -5 LegendNANA
05:00 Legend Double Dagger -3.9 -7.7 75 4 8 16.1 101.70   -7 LegendNANA
06:00 Legend Double Dagger -4.1 -7.9 75 8 8 16.1 101.71   -8 LegendNANA
07:00 Legend Double Dagger -4.0 -7.8 75 8 8 16.1 101.73   -7 LegendNANA
08:00 Legend Double Dagger -3.8 -7.4 76 7 9 16.1 101.70   -8 LegendNANA
09:00 Legend Double Dagger -3.6 -7.2 76 6 11 16.1 101.68   -8 LegendNANA
10:00 Legend Double Dagger -3.2 -7.2 74 11 13 14.5 101.66   -8 LegendNANA
11:00 Legend Double Dagger -3.2 -7.2 74 10 15 16.1 101.64   -8 LegendNANA
12:00 Legend Double Dagger -3.1 -6.9 75 7 9 16.1 101.63   -7 LegendNANA
13:00 Legend Double Dagger -3.0 -7.2 73 10 17 16.1 101.60   -9 LegendNANA
14:00 Legend Double Dagger -2.9 -6.4 77 9 24 16.1 101.58   -10 LegendNANA
15:00 Legend Double Dagger -3.2 -6.9 76 7 22 16.1 101.54   -10 LegendNANA
16:00 Legend Double Dagger -3.2 -7.0 75 8 26 16.1 101.55   -10 LegendNANA
17:00 Legend Double Dagger -3.1 -6.6 77 8 26 16.1 101.50   -10 LegendNANA
18:00 Legend Double Dagger -2.9 -6.7 75 9 33 16.1 101.44   -11 LegendNANA
19:00 Legend Double Dagger -2.6 -6.3 76 9 37 16.1 101.39   -11 LegendNANA
20:00 Legend Double Dagger -2.3 -6.0 76 10 33 16.1 101.33   -10 LegendNANA
21:00 Legend Double Dagger -2.0 -5.6 77 10 35 16.1 101.27   -10 LegendNANA
22:00 Legend Double Dagger -2.0 -5.3 78 9 35 16.1 101.22   -10 LegendNANA
23:00 Legend Double Dagger -2.0 -4.9 81 9 32 16.1 101.14   -9 LegendNANA

Notes on Data Quality.

Legend

  • E = Estimated
  • M = Missing
  • NA = Not Available
  • ‡ = Partner data that is not subject to review by the National Climate Archives
Date modified: